TimePDT,TemperatureF,Dew PointF,Humidity,Sea Level PressureIn,VisibilityMPH,Wind Direction,Wind SpeedMPH,Gust SpeedMPH,PrecipitationIn,Events,Conditions,WindDirDegrees,DateUTC
12:56 AM,50.0,48.0,93,30.16,10.0,Calm,Calm,-,N/A,,Scattered Clouds,0,2013-06-22 07:56:00
1:56 AM,50.0,48.0,93,30.15,10.0,East,3.5,-,N/A,,Mostly Cloudy,100,2013-06-22 08:56:00
2:56 AM,50.0,48.0,93,30.13,10.0,SE,4.6,-,N/A,,Mostly Cloudy,140,2013-06-22 09:56:00
3:56 AM,46.9,46.0,97,30.13,10.0,SE,3.5,-,N/A,,Mostly Cloudy,140,2013-06-22 10:56:00
4:56 AM,48.0,46.9,96,30.12,10.0,SSE,3.5,-,N/A,,Scattered Clouds,150,2013-06-22 11:56:00
5:56 AM,48.9,48.0,97,30.12,10.0,ESE,3.5,-,N/A,,Scattered Clouds,120,2013-06-22 12:56:00
6:56 AM,51.1,48.9,92,30.12,10.0,Calm,Calm,-,N/A,,Scattered Clouds,0,2013-06-22 13:56:00
7:41 AM,55.4,53.6,94,30.10,10.0,WSW,4.6,-,N/A,,Scattered Clouds,250,2013-06-22 14:41:00
7:56 AM,54.0,52.0,93,30.11,10.0,Calm,Calm,-,N/A,,Scattered Clouds,0,2013-06-22 14:56:00
8:56 AM,57.0,52.0,83,30.10,10.0,West,3.5,-,N/A,,Scattered Clouds,280,2013-06-22 15:56:00
9:56 AM,60.1,51.1,72,30.08,10.0,WNW,3.5,-,N/A,,Scattered Clouds,300,2013-06-22 16:56:00
10:56 AM,60.1,52.0,75,30.07,10.0,NNW,6.9,-,N/A,,Scattered Clouds,330,2013-06-22 17:56:00
11:56 AM,64.9,53.1,65,30.06,10.0,NW,6.9,-,N/A,,Scattered Clouds,320,2013-06-22 18:56:00
12:56 PM,64.9,53.1,65,30.04,10.0,WNW,8.1,-,N/A,,Scattered Clouds,300,2013-06-22 19:56:00
1:56 PM,63.0,53.1,70,30.03,10.0,West,5.8,-,N/A,,Scattered Clouds,270,2013-06-22 20:56:00
2:56 PM,64.0,53.1,67,30.01,10.0,NW,4.6,-,N/A,,Scattered Clouds,310,2013-06-22 21:56:00
3:56 PM,64.9,53.1,65,29.99,10.0,NNW,6.9,-,N/A,,Scattered Clouds,330,2013-06-22 22:56:00
4:56 PM,64.0,53.1,67,29.96,10.0,WNW,5.8,-,N/A,,Scattered Clouds,290,2013-06-22 23:56:00
5:56 PM,62.1,52.0,70,29.94,10.0,WNW,4.6,-,N/A,,Scattered Clouds,300,2013-06-23 00:56:00
6:56 PM,62.1,52.0,70,29.93,10.0,West,5.8,-,N/A,,Scattered Clouds,260,2013-06-23 01:56:00
7:56 PM,59.0,51.1,75,29.92,10.0,WSW,6.9,-,N/A,,Scattered Clouds,250,2013-06-23 02:56:00
8:56 PM,57.0,50.0,77,29.92,10.0,Calm,Calm,-,N/A,,Scattered Clouds,0,2013-06-23 03:56:00
9:56 PM,54.0,50.0,86,29.92,10.0,Calm,Calm,-,N/A,,Scattered Clouds,0,2013-06-23 04:56:00
10:56 PM,54.0,48.9,83,29.91,10.0,Calm,Calm,-,N/A,,Scattered Clouds,0,2013-06-23 05:56:00
11:56 PM,54.0,48.9,83,29.90,10.0,Calm,Calm,-,N/A,,Scattered Clouds,0,2013-06-23 06:56:00